|
ATLAS 3B R/B - Orbit
|
Arclight Observatory;
02:54:28
| Home | Info | Passes |
|
View from above orbital plane
|
View from above satellite
|
Ground track
|
The orbit data is extracted from the following two-line orbital elements,
1 28538U 05004B 13142.89015467 0.00000040 00000-0 61046-4 0 04
2 28538 63.8210 84.7461 0215000 272.4471 87.5529 13.42986461 03
| Epoch (UTC): | 22 May 2013 21:21:49 |
| Eccentricity: | 0.0215000 |
| inclination: | 63.8210° |
| perigee height: | 937 km |
| apogee height: | 1259 km |
| right ascension of ascending node: | 84.7461° |
| argument of perigee: | 272.4471° |
| revolutions per day: | 13.42986461 |
| mean anomaly at epoch: | 87.5529° |
| orbit number at epoch: | 0 |
The dashed part of the orbit path shows where the satellite is in the earth's shadow,
|
|